Location: Mount Cross
(36.6390°N, 79.4878°W)
Time: 18:03:41
(UTC+00:00)

Courier 1B Rocket - Pass Details

Date: 25 March 2023
Orbit: 920 x 1202 km, 28.2° (Epoch: 08 June)

Event Time Altitude Azimuth Distance (km) Brightness Sun altitude
Rises 23:10:09 0° 208° (SSW) 3,949 8.6 3.9°
Reaches altitude 10° 23:14:23 10° 187° (S) 2,933 7.6 3.1°
Maximum altitude 23:18:11 15° 155° (SSE) 2,517 6.9 2.3°
Drops below altitude 10° 23:21:52 10° 122° (ESE) 2,822 6.9 1.6°
Sets 23:25:46 0° 100° (E) 3,716 7.3 0.8°
